Phoenix Deer Valley, AZ

3:55 AM MST on December 13, 2019 (GMT -0700)
Phoenix-Deer Valley Municipal

Weather History for KDVT - November, 2019

Change the Weather History Date:

Saturday, November 16, 2019

  Actual Average Record
Temperature  
Mean Temperature 68 °F -  
Max Temperature 78 °F 70 °F 86 °F (1999)
Min Temperature 59 °F 49 °F 39 °F (2000)
Cooling Degree Days 4    
Growing Degree Days 18 (Base 50)    
Moisture  
Dew Point 31 °F    
Average Humidity 26    
Maximum Humidity 33    
Minimum Humidity 19    
Precipitation  
Precipitation 0.00 in - - ()
Sea Level Pressure  
Sea Level Pressure 29.93 in    
Wind  
Wind Speed 4 mph ()    
Max Wind Speed 10 mph    
Max Gust Speed -    
Visibility 10.0 miles    
Events      
Averages and records for this station are not official NWS values.
T = Trace of Precipitation, MM = Missing Value Source: Averaged Metar Reports

Daily Weather History Graph

Daily Weather History Graph

Search for Another Location

Airport or City:

Astronomy

Nov. 16, 2019 Rise Set
Actual Time 7:01 AM MST 5:24 PM MST
Civil Twilight 6:34 AM MST 5:51 PM MST
Nautical Twilight 6:04 AM MST 6:21 PM MST
Astronomical Twilight 5:34 AM MST 6:51 PM MST
Moon 9:06 PM MST (11/16) 10:53 AM MST (11/16)
Length of Visible Light 11h 16m
Length of Day
10h 23m
Waning Gibbous, 82% of the Moon is Illuminated
Nov 16
Waning Gibbous
Nov 19
Last Quarter
Nov 26
New
Dec 3
First Quarter
Dec 11
Full

Hourly Weather History & Observations

Time (MST) Temp. Dew Point Humidity Pressure Visibility Wind Dir Wind Speed Gust Speed Precip Events Conditions
12:53 AM 64.0 °F 30.9 °F 29% 29.93 in 10.0 mi NNE 6.9 mph - N/A   Clear
2:53 AM 63.0 °F 30.0 °F 29% 29.94 in 10.0 mi NNE 8.1 mph - N/A   Clear
3:53 AM 63.0 °F 30.0 °F 29% 29.92 in 10.0 mi NNE 8.1 mph - N/A   Clear
4:53 AM 60.1 °F 30.0 °F 32% 29.93 in 10.0 mi Variable 3.5 mph - N/A   Clear
5:53 AM 60.1 °F 30.0 °F 32% 29.94 in 10.0 mi Calm Calm - N/A   Clear
6:53 AM 59.0 °F 28.9 °F 32% 29.94 in 10.0 mi Calm Calm - N/A   Clear
7:53 AM 62.1 °F 30.0 °F 30% 29.96 in 10.0 mi ENE 5.8 mph - N/A   Clear
8:53 AM 63.0 °F 30.9 °F 30% 29.97 in 10.0 mi NNE 5.8 mph - N/A   Clear
9:53 AM 68.0 °F 30.9 °F 25% 29.98 in 10.0 mi NNW 5.8 mph - N/A   Clear
10:53 AM 73.0 °F 30.0 °F 20% 29.96 in 10.0 mi Calm Calm - N/A   Clear
11:53 AM 75.9 °F 32.0 °F 20% 29.94 in 10.0 mi Variable 5.8 mph - N/A   Clear
12:53 PM 77.0 °F 33.1 °F 20% 29.91 in 10.0 mi South 5.8 mph - N/A   Clear
1:53 PM 77.0 °F 33.1 °F 20% 29.89 in 10.0 mi SSW 5.8 mph - N/A   Clear
2:53 PM 78.1 °F 33.1 °F 19% 29.88 in 10.0 mi SSW 5.8 mph - N/A   Clear
3:53 PM 77.0 °F 32.0 °F 19% 29.88 in 10.0 mi SSW 5.8 mph - N/A   Clear
4:53 PM 75.9 °F 32.0 °F 20% 29.89 in 10.0 mi West 3.5 mph - N/A   Clear
5:53 PM 71.1 °F 33.1 °F 25% 29.90 in 10.0 mi NNW 3.5 mph - N/A   Clear
6:53 PM 69.1 °F 33.1 °F 26% 29.92 in 10.0 mi NNE 5.8 mph - N/A   Clear
7:53 PM 66.0 °F 33.1 °F 29% 29.93 in 10.0 mi NNE 3.5 mph - N/A   Clear
8:53 PM 66.9 °F 32.0 °F 27% 29.94 in 10.0 mi NNE 10.4 mph - N/A   Clear
9:53 PM 64.0 °F 30.9 °F 29% 29.95 in 10.0 mi Variable 3.5 mph - N/A   Clear
10:53 PM 63.0 °F 30.9 °F 30% 29.95 in 10.0 mi North 3.5 mph - N/A   Clear
11:53 PM 60.1 °F 30.9 °F 33% 29.96 in 10.0 mi Calm Calm - N/A   Clear